Flag for Canada Weather past 2 weeks in Vancouver, British Columbia, Canada

Now
73 °F

Partly sunny.


Feels Like: 76 °F
Forecast: 60 / 82 °F
Wind: 8 mph from Southwest

Location: Vancouver International Air-Port

Current Time: Aug 1, 2014 at 5:28:02 PM

Latest Report: Aug 1, 2014 at 4:00 PM


Visibility: 30 mi

Pressure: 30.00 "Hg

Humidity: 65%

Dew point: 61 °F

Location of VancouverLocation

Historic Weather in Vancouver — Graph

°F

Vancouver temperature yesterday

Maximum temperature yesterday: 75 °F (at 1:00 PM)
Minimum temperature yesterday: 59 °F (at 6:00 AM)
Average temperature yesterday: 69 °F

Past Weeks' High & Low Weather Summary

 TemperatureHumidityPressure
High77 °F (Jul 29, 4:00 PM)100% (Jul 24, 3:00 AM)30.21 "Hg (Jul 24, 3:00 AM)
Low54 °F (Jul 25, 6:00 AM)49% (Jul 21, 8:00 PM)29.88 "Hg (Jul 19, 8:00 PM)
Average65 °F75%30.05 "Hg
* Reported Jul 17 4:00 PM — Aug 1 4:00 PM, Vancouver, Weather by CustomWeather, © 2014

Note: Actual official high and low records may vary slightly from our data, if they occured in-between our weather recording intervals... More about our weather records

Advertising

Vancouver weather history for previous 24 hours

 ConditionsComfort  
Time TempWeatherWind HumidityBarometerVisibility
4:00 PM
Aug 1
73 °FPartly sunny.8 mph65%30.00 "Hg30 mi
3:00 PM73 °FPartly sunny.8 mph61%30.01 "Hg30 mi
2:00 PM75 °FBroken clouds.8 mph61%30.01 "Hg30 mi
1:00 PM75 °FPartly sunny.6 mph65%30.03 "Hg30 mi
12:00 PM73 °FBroken clouds.12 mph69%30.04 "Hg30 mi
11:00 AM70 °FBroken clouds.12 mph73%30.06 "Hg30 mi
10:00 AM70 °FPartly sunny.12 mph69%30.05 "Hg30 mi
9:00 AM70 °FPartly sunny.14 mph73%30.06 "Hg30 mi
8:00 AM70 °FScattered clouds.12 mph78%30.05 "Hg30 mi
7:00 AM66 °FPassing clouds.8 mph83%30.04 "Hg30 mi
6:00 AM61 °FClear.3 mph88%30.04 "Hg30 mi
5:00 AM63 °FClear.3 mph83%30.03 "Hg30 mi
4:00 AM64 °FClear.6 mph83%30.03 "Hg30 mi
3:00 AM63 °FClear.3 mph88%30.03 "Hg30 mi
2:00 AM66 °FClear.8 mph83%30.02 "Hg30 mi
1:00 AM64 °FClear.8 mph88%30.02 "Hg30 mi
12:00 AM68 °FClear.8 mph88%30.01 "Hg30 mi
11:00 PM
Jul 31
70 °FClear.7 mph83%30.01 "Hg30 mi
10:00 PM70 °FClear.5 mph83%30.01 "Hg30 mi
9:00 PM70 °FSunny.5 mph78%30.01 "Hg30 mi
8:00 PM73 °FSunny.5 mph74%30.00 "Hg30 mi
7:00 PM73 °FSunny.10 mph69%30.01 "Hg30 mi
6:00 PM75 °FSunny.9 mph65%30.02 "Hg30 mi
5:00 PM75 °FSunny.9 mph69%30.04 "Hg30 mi
Weather by CustomWeather, © 2014

See weather overviewHow to use our weather pages